Regional Weather Roundup
Issued by NWS

Home | Current Version | Previous Version | Text Only | Print | Product List | Glossary On
Versions: 1 2 3 4 5 6 7 8 9 10 11 12 13 14 15 16 17 18 19 20 21 22 23 24 25 26 27 28 29 30 31 32 33 34 35 36 37 38 39 40 41 42 43 44 45 46 47 48 49 50
000
ASUS43 KTOP 282108
RWRKS

WEATHER ROUNDUP FOR KANSAS
NATIONAL WEATHER SERVICE GOODLAND KS
400 PM CDT MON JUL 28 2014

NOTE:  "FAIR" INDICATES FEW OR NO CLOUDS BELOW 12,000 FEET WITH NO
SIGNIFICANT WEATHER AND/OR OBSTRUCTIONS TO VISIBILITY.

KSZ001>006-013>018-027>032-041>047-282200-
NORTHWEST KANSAS

CITY           SKY/WX    TMP DP  RH WIND       PRES   REMARKS
GOODLAND       SUNNY     85  55  35 S14G24    30.28F
HAYS           SUNNY     86  57  37 S6        30.24F
HILL CITY      SUNNY     88  54  31 SE8       30.23F
RUSSELL        SUNNY     86  56  35 N5        30.23F
$$

KSZ061>065-074>080-084>089-282200-
SOUTHWEST KANSAS

CITY           SKY/WX    TMP DP  RH WIND       PRES   REMARKS
DODGE CITY     MOSUNNY   85  55  35 S12       30.27F
ELKHART          N/A     72  58  61 S12         N/A
GARDEN CITY    MOSUNNY   82  56  40 SW12      30.27F
GREAT BEND     SUNNY     84  55  37 SE3       30.22F
LIBERAL        PTSUNNY   77  55  47 S15       30.32F
PRATT          MOSUNNY   86  50  28 CALM      30.25F
$$

KSZ066>073-081>083-090>101-282200-
SOUTHEAST KANSAS

CITY           SKY/WX    TMP DP  RH WIND       PRES   REMARKS
CHANUTE        SUNNY     84  58  40 N10G18    30.18F
COFFEYVILLE    SUNNY     87  57  35 NW8       30.17F
HUTCHINSON     SUNNY     87  57  35 NW7       30.22F
MEDICINE LODGE   N/A     85  57  38 S3        30.21F
NEWTON         SUNNY     84  54  34 N8G20     30.25F
PARSONS        SUNNY     87  58  37 NW8       30.19S
WICHITA INTL   MOSUNNY   86  59  39 NW5       30.21F
WICHITA JABRA  SUNNY     86  58  38 NW12      30.21F
WICHITA MCCONL MOSUNNY   86  57  36 N9        30.21F
WINFIELD       MOSUNNY   87  61  41 NW9       30.21F
$$

KSZ007>012-019>026-033>040-048>060-102>105-282200-
NORTHEAST KANSAS

CITY           SKY/WX    TMP DP  RH WIND       PRES   REMARKS
CONCORDIA      MOSUNNY   82  58  43 N9        30.23F
EMPORIA        SUNNY     85  51  31 N10G18    30.19F
LAWRENCE       MOSUNNY   82  58  43 N9        30.19F
MANHATTAN      SUNNY     85  54  34 VRB5      30.20F
MARYSVILLE     SUNNY     81  57  44 NW8       30.23S
OLATHE IND     MOSUNNY   78  57  48 NW8G17    30.20F
OLATHE EXE     MOSUNNY   79  56  45 NW9       30.18F
SALINA         SUNNY     88  53  30 VRB6G18   30.21F
TOPEKA BILLARD MOSUNNY   85  56  37 NW12      30.20F
TOPEKA FORBES  MOSUNNY   84  54  35 NW10      30.19F
$$


USA.gov is the U.S. government's official web portal to all federal, state and local government web resources and services.